Powrót do katalogu

STARLINK-11123

AktywnyŁącznośćVLEO
NORAD 59948·PAYLOAD·🇺🇸 United States

Wystrzelony Jun 5, 2024 z Cape Canaveral Space Force Station

Loading…

Następne Przeloty (najbliższe 24 godziny)

TLE

ŚwieżeSource: CelesTrak SupGP

Epoka: Sep 14, 2026, 20:42 UTC

1 59948C 24107D   26257.86298611  .00214490  00000+0  17648-2 0  2576
2 59948  53.1576  38.9073 0001183  83.6924 328.9495 15.69630061    17

Śledź STARLINK-11123 w czasie rzeczywistym z AllMySat

Download on the App Store